Location: Bagnara
(41.0500°N, 14.7833°E)
Time: 22:51:32
(UTC+00:00)

COSMOS 2251 DEB - Visible Passes

Search period start: 10 August 2022 00:00
Search period end: 20 August 2022 00:00
Orbit: 764 x 1287 km, 74.0° (Epoch: 10 August)

Date Brightness Start Highest point End Pass type
(mag) Time Alt. Az. Time Alt. Az. Time Alt. Az.
10 Aug ? 20:22:29 39° SSE 20:24:39 62° ESE 20:30:10 10° NNE visible
10 Aug ? 22:08:20 10° WSW 22:12:37 20° WNW 22:16:37 10° NNW visible
11 Aug ? 19:15:42 17° SE 19:18:06 21° E 19:22:15 10° NE visible
11 Aug ? 21:01:19 20° SW 21:05:25 52° WNW 21:10:49 10° N visible
12 Aug ? 19:54:02 18° S 19:58:35 55° ESE 20:04:00 10° NNE visible
12 Aug ? 21:42:03 10° WSW 21:46:29 21° WNW 21:50:38 10° N visible
13 Aug ? 18:47:59 10° SE 18:52:04 19° E 18:55:53 10° NE visible
13 Aug ? 20:33:18 10° SSW 20:39:19 57° WNW 20:44:43 10° NNE visible
14 Aug ? 19:26:39 10° S 19:32:32 50° ESE 19:37:49 10° NNE visible
14 Aug ? 21:15:46 10° WSW 21:20:22 23° WNW 21:24:39 10° N visible
15 Aug ? 18:22:26 10° SE 18:26:03 17° E 18:29:27 10° ENE visible
15 Aug ? 20:07:15 10° SSW 20:13:13 63° WNW 20:18:37 10° NNE visible
16 Aug ? 19:00:46 10° S 19:06:28 44° ESE 19:11:37 10° NNE visible
16 Aug ? 20:49:30 10° WSW 20:54:13 25° WNW 20:58:38 10° N visible
17 Aug ? 19:41:11 10° SSW 19:47:08 70° WNW 19:52:30 10° NNE visible
18 Aug ? 18:34:53 10° S 18:40:23 40° ESE 18:45:24 10° NE visible
18 Aug ? 20:23:15 10° WSW 20:28:05 27° WNW 20:32:36 10° N visible
19 Aug ? 19:15:08 10° SSW 19:21:01 77° WNW 19:26:23 10° NNE visible
19 Aug ? 21:08:28 10° WNW 21:09:30 10° NW 21:10:31 10° NW visible
